Saint Louis, Missouri, United States (63101)
Lat: 38.63N, Lon: 90.2W
Wx Zone: MOZ064
Local Info
Past Weather Observations for Today

NOTE: This archive is for the closest National Weather Service station to Saint Louis. Information may differ from the station used for current weather conditions.

Click here for Long-term Archive

Time Weather Temperature Dewpoint Humidity Pressure Winds Precip Visibility
06:53
Clear
Fog And Mist
54°F / 12°C 52°F / 11°C 94% 30.04 in
(1017 mb)
Calm - 6SM
05:53
Clear
Fog And Mist
48°F / 9°C 48°F / 9°C 100% 30.04 in
(1017 mb)
NW 5.8 mph
(NW 9 kph)
- 6SM
05:22
Clear
Fog And Mist
48°F / 9°C 48°F / 9°C 100% 30.04 in
(1017 mb)
Calm - 3SM
05:12
Clear
Fog And Mist
46°F / 8°C 46°F / 8°C 100% 30.04 in
(1017 mb)
E 3.5 mph
(E 6 kph)
- 1 1/2SM
05:00
Clear
Fog
46°F / 8°C 46°F / 8°C 100% 30.04 in
(1017 mb)
ESE 3.5 mph
(ESE 6 kph)
- 1/2SM
04:53
Clear
Fog
46°F / 8°C 46°F / 8°C 100% 30.04 in
(1017 mb)
SE 3.5 mph
(SE 6 kph)
- 1/4SM
04:48
Clear
Fog
46°F / 8°C 46°F / 8°C 100% 30.06 in
(1018 mb)
SE 3.5 mph
(SE 6 kph)
- 1/4SM
04:15
Clear
Fog And Mist
48°F / 9°C 46°F / 8°C 94% 30.06 in
(1018 mb)
Calm - 1 3/4SM
04:05
Clear
Fog And Mist
48°F / 9°C 48°F / 9°C 100% 30.06 in
(1018 mb)
S 3.5 mph
(S 6 kph)
- 3SM
03:53
Clear
Fog And Mist
48°F / 9°C 46°F / 8°C 94% 30.06 in
(1018 mb)
Calm - 1 1/4SM
03:50
Clear
Fog And Mist
48°F / 9°C 46°F / 8°C 94% 30.06 in
(1018 mb)
Calm - 1 3/4SM
02:53
Clear
Fog And Mist
46°F / 8°C 46°F / 8°C 100% 30.09 in
(1019 mb)
Calm - 3SM
02:43
Clear
Fog And Mist
48°F / 9°C 48°F / 9°C 100% 30.09 in
(1019 mb)
SSE 3.5 mph
(SSE 6 kph)
- 3SM
02:33
Clear
Fog And Mist
48°F / 9°C 48°F / 9°C 100% 30.09 in
(1019 mb)
Calm - 2SM
02:24
Clear
Fog
46°F / 8°C 46°F / 8°C 100% 30.09 in
(1019 mb)
SSE 3.5 mph
(SSE 6 kph)
- 1/2SM
02:16
Clear
Fog And Mist
48°F / 9°C 46°F / 8°C 94% 30.09 in
(1019 mb)
SE 3.5 mph
(SE 6 kph)
- 1 3/4SM
01:53
Clear
Fog And Mist
48°F / 9°C 48°F / 9°C 100% 30.09 in
(1019 mb)
Calm - 4SM
01:48
Partly Cloudy
Fog And Mist
48°F / 9°C 48°F / 9°C 100% 30.09 in
(1019 mb)
Calm - 4SM
01:41
Partly Cloudy
Fog And Mist
48°F / 9°C 48°F / 9°C 100% 30.09 in
(1019 mb)
Calm - 2 1/2SM
01:37
Obscured
Fog And Mist
48°F / 9°C 48°F / 9°C 100% 30.09 in
(1019 mb)
Calm - 1SM
01:30
Obscured
Fog
48°F / 9°C 48°F / 9°C 100% 30.09 in
(1019 mb)
Calm - 1/4SM
01:23
Obscured
Fog
48°F / 9°C 48°F / 9°C 100% 30.09 in
(1019 mb)
Calm - 1/2SM
01:18
Clear
Fog And Mist
48°F / 9°C 48°F / 9°C 100% 30.09 in
(1019 mb)
Calm - 1 1/4SM
01:01
Clear
Fog
48°F / 9°C 46°F / 8°C 94% 30.09 in
(1019 mb)
Calm - 1/2SM
00:53
Clear
Fog
48°F / 9°C 48°F / 9°C 100% 30.09 in
(1019 mb)
Calm - 1/4SM
00:45
Obscured
Fog
48°F / 9°C 46°F / 8°C 94% 30.09 in
(1019 mb)
Calm - 1/4SM
00:40
Clear
Fog And Mist
48°F / 9°C 48°F / 9°C 100% 30.09 in
(1019 mb)
SSE 3.5 mph
(SSE 6 kph)
- 1 1/2SM
00:08
Clear
Fog And Mist
50°F / 10°C 48°F / 9°C 94% 30.09 in
(1019 mb)
Calm - 5SM
00:01
Clear
Fog And Mist
50°F / 10°C 48°F / 9°C 94% 30.09 in
(1019 mb)
Calm - 2 1/2SM
Time Weather Temperature Dewpoint Humidity Pressure Winds Precip Visibility


Weather for websites

WeatherForYou.com, LLC is not responsible for any damages or problems caused by this service. Current weather conditions are obtained from the closest station including government and personal stations which may have varying degrees of accuracy. Weather forecasts are derived from the NOAA NDFD. Like all things, this site belongs to Jesus Christ... He just trusts me to maintain it. If you have any questions or comments email webmaster@weatherforyou.com

Copyright © 2014, WeatherForYou.com LLC. All rights reserved.